Simultaneous Nadir Overpasses (SNOs) Predictions

Prediction of SNOs between NOAA-19 and NPP Satellite Orbit:

Table of predicted SNOs for the next 14.0 days since TLE Epoch: 2/23/2018
Index Date (NOAA-19) Time (NOAA-19) Lat,Lon (NOAA-19) SZA (NOAA-19 ) Date (NPP) Time (NPP) Lat,Lon (NPP) SZA (NPP ) Distance(km) Time Diff (sec)
1 03/06/2018 22:13:41 80.63, 159.64 89.29 03/06/2018 22:14:47 80.63, 159.79 89.24 2.67 66
2 03/06/2018 23:04:40 -80.64, -32.98 90.74 03/06/2018 23:05:32 -80.63, -32.96 90.77 0.59 52
3 03/06/2018 23:55:42 80.64, 134.24 89.25 03/06/2018 23:56:17 80.63, 134.36 89.22 2.24 35
4 03/07/2018 00:46:41 -80.64, -58.39 90.78 03/07/2018 00:47:02 -80.64, -58.38 90.79 0.40 21
5 03/07/2018 01:37:43 80.64, 108.83 89.22 03/07/2018 01:37:47 80.64, 108.93 89.20 1.81 4
6 03/07/2018 02:28:42 -80.64, -83.80 90.81 03/07/2018 02:28:32 -80.64, -83.81 90.81 0.42 10
7 03/07/2018 03:19:44 80.64, 83.43 89.18 03/07/2018 03:19:17 80.64, 83.50 89.18 1.39 27
8 03/07/2018 04:10:43 -80.65,-109.22 90.85 03/07/2018 04:10:02 -80.64,-109.24 90.83 0.63 41
9 03/07/2018 05:01:45 80.65, 58.02 89.14 03/07/2018 05:00:47 80.64, 58.07 89.16 0.97 58




NCC Satellite Simultaneous Nadir Overpasses (SNOs) Prediction Service
